Regional Weather Roundup
Issued by NWS Newport/Morehead, NC

Current Version | Previous Version | Text Only | Print | Product List | Glossary Off
Versions: 1 2 3 4 5 6 7 8 9 10 11 12 13 14 15 16 17 18 19 20 21 22 23 24 25 26 27 28 29 30 31 32 33 34 35 36 37 38 39 40 41 42 43 44 45 46 47 48 49 50
000 ASUS42 KMHX 191810 RWRMHX WEATHER ROUNDUP FOR EASTERN NORTH CAROLINA NATIONAL WEATHER SERVICE NEWPORT/MOREHEAD CITY NC 100 PM EST FRI JAN 19 2018 NOTE: "FAIR" INDICATES FEW OR NO CLOUDS BELOW 12,000 FEET WITH NO SIGNIFICANT WEATHER AND/OR OBSTRUCTIONS TO VISIBILITY NCZ015>017-031-032-045>047-102-103-191900- NORTH COAST CITY SKY/WX TMP DP RH WIND PRES REMARKS EDENTON FAIR 52 20 28 SW6 30.17F ELIZABETH CITY FAIR 47 31 53 SW10 30.16F KITTY HAWK FAIR 44 20 38 CALM 30.15F MANTEO FAIR 44 23 43 W7 30.17F $$ NCZ045>047-081-094-103-104-191900- CENTRAL COAST CITY SKY/WX TMP DP RH WIND PRES REMARKS FRISCO FAIR 46 28 49 VRB6 30.19F $$ NCZ095-097-098-100-101-191900- SOUTHERN COAST CITY SKY/WX TMP DP RH WIND PRES REMARKS BEAUFORT FAIR 48 32 53 SW10 30.21F CEDAR ISLAND NOT AVBL JACKSONVILLE FAIR 54 22 28 W9 30.21F PINEY ISLAND NOT AVBL WILMINGTON FAIR 57 17 21 SW13 30.22F $$ NCZ011>013-027>030-043-044-078>080-089-090>093-098-191900- COASTAL PLAIN CITY SKY/WX TMP DP RH WIND PRES REMARKS AHOSKIE FAIR 51 20 30 CALM 30.16F CLINTON FAIR 51 24 34 SW7 30.21F ELIZABETHTOWN NOT AVBL GOLDSBORO FAIR 56 18 22 W3 30.18F GREENVILLE FAIR 54 14 20 W7 30.20F HAVELOCK NOT AVBL KENANSVILLE FAIR 54 19 26 SW8 30.21F KINSTON FAIR 54 16 22 SW5 30.20F NEW BERN FAIR 54 21 27 W9 30.20F RICHLANDS FAIR 54 21 27 SW9 30.21F ROCKY MOUNT NOT AVBL WASHINGTON FAIR 55 16 22 W5 30.19F WHITEVILLE FAIR 54 20 26 SW7 30.22F $$ AMZ130-135-150-152-154-156-158-170-250-252-270-ANZ085-086-088-633-658-670-191900- MARINE OBSERVATIONS STATION/POSITION TIME TEMP WIND PRES WAVE SWELL AIR SEA DIR/SP/G HT/PER HT/PER (UTC) (F) (DEG/KT/KT) (MB) (FT/S) (FT/S) CHESAPEAKE LIGHT NOT AVBL 64 E VA BEACH NOT AVBL DUCK NOT AVBL 2 E DUCK NOT AVBL OREGON INLET NOT AVBL 13E OREGON INLT NOT AVBL HATTERAS CG NOT AVBL DIAMOND BUOY NOT AVBL CAPE LOOKOUT NOT AVBL BEAUFORT LAB NOT AVBL 30 SE NEW RVR IN NOT AVBL 30 SE NEW RVR IN NOT AVBL 27 SE WRIGHTSVLE NOT AVBL 5 SE WRIGHTSVLE NOT AVBL 225 S CAPE HAT NOT AVBL 41 SE CHARLESTON NOT AVBL $$

USA.gov is the U.S. government's official web portal to all federal, state and local government web resources and services.